Location: Unspecified
(0.0000°N, 0.0000°E)
Time: 19:26:39
(UTC+00:00)

deb r/b Ablestar - Visible Passes

Search period start: 10 November 2025 00:00
Search period end: 20 November 2025 00:00
Orbit: 782 x 884 km, 66.7° (Epoch: 08 November)

Date Brightness Start Highest point End Pass type
(mag) Time Alt. Az. Time Alt. Az. Time Alt. Az.
10 Nov ? 05:01:07 10° NNW 05:06:26 73° ENE 05:11:48 10° SSE visible
11 Nov ? 04:43:13 10° N 04:48:29 65° ENE 04:53:50 10° SSE visible
12 Nov ? 04:25:19 10° N 04:30:33 59° ENE 04:35:52 10° SSE visible
13 Nov ? 04:08:42 17° N 04:12:37 53° ENE 04:17:51 10° SSE visible
14 Nov ? 03:52:21 29° NNE 03:54:40 47° ENE 03:59:50 10° SE visible
15 Nov ? 03:35:54 40° NE 03:36:43 43° ENE 03:41:47 10° SE visible
15 Nov ? 05:18:56 10° W 05:20:50 12° WSW 05:22:45 10° SW visible
16 Nov ? 03:19:23 37° E 03:19:23 37° E 03:23:44 10° SE visible
16 Nov ? 05:01:03 11° W 05:02:52 13° WSW 05:05:23 10° SW visible
17 Nov ? 03:02:45 26° ESE 03:02:45 26° ESE 03:05:39 10° SE visible
17 Nov ? 04:44:25 15° WSW 04:44:54 15° WSW 04:47:52 10° SW visible
18 Nov ? 02:46:02 17° ESE 02:46:02 17° ESE 02:47:33 10° SE visible
18 Nov ? 04:27:41 16° WSW 04:27:41 16° WSW 04:30:16 10° SSW visible
19 Nov ? 02:29:13 11° SE 02:29:13 11° SE 02:29:25 10° SE visible
19 Nov ? 04:10:52 15° SW 04:10:52 15° SW 04:12:35 10° SSW visible
